Weather History for Princeton, MN

Change the Weather History Date:

Friday, April 11, 2014

  Actual Average Record
Temperature  
Mean Temperature 48 °F -  
Max Temperature 64 °F 51 °F 73 °F (2006)
Min Temperature 33 °F 30 °F 19 °F (2012)
Degree Days  
Heating Degree Days 16    
Moisture  
Dew Point 32 °F    
Average Humidity 52    
Maximum Humidity 87    
Minimum Humidity 26    
Precipitation  
Precipitation 0.00 in - - ()
Sea Level Pressure  
Sea Level Pressure 29.93 in    
Wind  
Wind Speed 4 mph (WNW)    
Max Wind Speed 13 mph    
Max Gust Speed 17 mph    
Visibility 10 miles    
Events Rain    
Averages and records for this station are not official NWS values.
T = Trace of Precipitation, MM = Missing Value Source: NWS Daily Summary

Daily Weather History Graph

Daily Weather History Graph

Search for Another Location

Airport:

Trip Planner

Search our weather history database for the weather conditions in past years. The results will help you decide how hot, cold, wet, or windy it might be!

Date:

Astronomy

Apr. 11, 2014 Rise Set
Actual Time 6:36 AM CDT 7:55 PM CDT
Civil Twilight 6:05 AM CDT 8:26 PM CDT
Nautical Twilight 5:28 AM CDT 9:03 PM CDT
Astronomical Twilight 4:49 AM CDT 9:43 PM CDT
Moon 4:27 PM CDT (4/11) 4:42 AM CDT (4/11)
Length of Visible Light 14h 21m
Length of Day
13h 19m
Waxing Gibbous, 87% of the Moon is Illuminated
Apr 11
Waxing Gibbous
Apr 15
Full
Apr 22
Last Quarter
Apr 29
New
May 6
First Quarter

Hourly Weather History & Observations

Time (CDT) Temp. Windchill Dew Point Humidity Pressure Visibility Wind Dir Wind Speed Gust Speed Precip Events Conditions
12:13 AM 33.8 °F - 26.6 °F 75% 29.92 in 10.0 mi Calm Calm - N/A   Mostly Cloudy
12:34 AM 35.6 °F - 28.4 °F 75% 29.92 in 10.0 mi Calm Calm - N/A   Mostly Cloudy
12:53 AM 35.6 °F - 26.6 °F 70% 29.92 in 10.0 mi Calm Calm - N/A   Mostly Cloudy
1:13 AM 35.6 °F - 28.4 °F 75% 29.92 in 10.0 mi Calm Calm - N/A   Overcast
1:34 AM 37.4 °F - 28.4 °F 70% 29.93 in 10.0 mi Calm Calm - N/A   Mostly Cloudy
1:53 AM 37.4 °F 34.9 °F 30.2 °F 75% 29.93 in 10.0 mi SW 3.5 mph - N/A   Overcast
2:13 AM 41.0 °F - 28.4 °F 61% 29.92 in 10.0 mi Calm Calm - N/A   Overcast
2:33 AM 42.8 °F - 28.4 °F 57% 29.93 in 10.0 mi Calm Calm - N/A   Overcast
2:53 AM 42.8 °F - 28.4 °F 57% 29.93 in 10.0 mi Calm Calm - N/A   Overcast
3:13 AM 42.8 °F - 30.2 °F 61% 29.93 in 10.0 mi Calm Calm - N/A   Mostly Cloudy
3:33 AM 42.8 °F 39.3 °F 30.2 °F 61% 29.94 in 10.0 mi NW 5.8 mph - N/A   Mostly Cloudy
3:54 AM 44.6 °F 39.7 °F 28.4 °F 53% 29.94 in 10.0 mi NW 9.2 mph - N/A   Overcast
4:13 AM 44.6 °F 40.2 °F 30.2 °F 57% 29.94 in 10.0 mi NW 8.1 mph - N/A   Mostly Cloudy
4:33 AM 46.4 °F 41.5 °F 32.0 °F 57% 29.95 in 10.0 mi NW 10.4 mph - N/A   Overcast
4:54 AM 46.4 °F 41.9 °F 33.8 °F 62% 29.95 in 10.0 mi NNW 9.2 mph - N/A   Overcast
5:13 AM 44.6 °F 41.4 °F 33.8 °F 66% 29.95 in 10.0 mi NNW 5.8 mph - N/A   Overcast
5:33 AM 44.6 °F 39.7 °F 35.6 °F 71% 29.94 in 10.0 mi NNW 9.2 mph - N/A   Overcast
5:54 AM 44.6 °F 40.2 °F 35.6 °F 71% 29.95 in 10.0 mi NNW 8.1 mph - N/A   Overcast
6:13 AM 42.8 °F 41.1 °F 37.4 °F 81% 29.96 in 10.0 mi WNW 3.5 mph - N/A   Overcast
6:33 AM 42.8 °F 40.1 °F 37.4 °F 81% 29.95 in 10.0 mi NNW 4.6 mph - N/A Rain Light Rain
6:53 AM 42.8 °F 37.5 °F 37.4 °F 81% 29.94 in 10.0 mi North 9.2 mph - N/A   Overcast
7:13 AM 42.8 °F 38.6 °F 37.4 °F 81% 29.95 in 10.0 mi North 6.9 mph - N/A   Overcast
7:33 AM 42.8 °F 38.6 °F 37.4 °F 81% 29.95 in 10.0 mi North 6.9 mph - N/A   Mostly Cloudy
7:53 AM 42.8 °F 36.6 °F 37.4 °F 81% 29.94 in 10.0 mi North 11.5 mph - N/A Rain Rain
8:13 AM 42.8 °F 39.3 °F 37.4 °F 81% 29.96 in 10.0 mi NNW 5.8 mph - N/A   Light Drizzle
8:33 AM 42.8 °F 40.1 °F 37.4 °F 81% 29.94 in 10.0 mi NNE 4.6 mph - N/A Rain Light Rain
8:53 AM 42.8 °F 40.1 °F 39.2 °F 87% 29.94 in 10.0 mi East 4.6 mph - N/A Rain Light Rain
9:13 AM 44.6 °F - 39.2 °F 81% 29.95 in 10.0 mi Calm Calm - N/A   Mostly Cloudy
9:33 AM 46.4 °F 45.2 °F 39.2 °F 76% 29.94 in 10.0 mi SE 3.5 mph - N/A   Mostly Cloudy
9:53 AM 48.2 °F - 39.2 °F 71% 29.94 in 10.0 mi South 5.8 mph - N/A   Mostly Cloudy
10:13 AM 51.8 °F - 39.2 °F 62% 29.94 in 10.0 mi South 4.6 mph - N/A   Mostly Cloudy
10:33 AM 53.6 °F - 39.2 °F 58% 29.94 in 10.0 mi South 3.5 mph - N/A   Scattered Clouds
10:53 AM 53.6 °F - 39.2 °F 58% 29.95 in 10.0 mi SW 4.6 mph - N/A   Clear
11:13 AM 55.4 °F - 37.4 °F 51% 29.95 in 10.0 mi SW 5.8 mph - N/A   Clear
11:33 AM 57.2 °F - 35.6 °F 44% 29.95 in 10.0 mi WSW 5.8 mph - N/A   Clear
11:53 AM 57.2 °F - 33.8 °F 41% 29.95 in 10.0 mi WSW 8.1 mph - N/A   Clear
12:13 PM 57.2 °F - 30.2 °F 36% 29.95 in 10.0 mi West 10.4 mph - N/A   Clear
12:33 PM 59.0 °F - 30.2 °F 34% 29.95 in 10.0 mi West 10.4 mph - N/A   Scattered Clouds
12:53 PM 59.0 °F - 28.4 °F 31% 29.95 in 10.0 mi West 12.7 mph - N/A   Clear
1:13 PM 60.8 °F - 28.4 °F 29% 29.95 in 10.0 mi West 10.4 mph - N/A   Clear
1:33 PM 60.8 °F - 28.4 °F 29% 29.95 in 10.0 mi West 11.5 mph - N/A   Clear
1:54 PM 62.6 °F - 28.4 °F 27% 29.95 in 10.0 mi West 12.7 mph 16.1 mph N/A   Clear
2:13 PM 62.6 °F - 30.2 °F 30% 29.94 in 10.0 mi West 11.5 mph - N/A   Scattered Clouds
2:33 PM 60.8 °F - 28.4 °F 29% 29.94 in 10.0 mi West 9.2 mph - N/A   Scattered Clouds
2:54 PM 60.8 °F - 28.4 °F 29% 29.93 in 10.0 mi West 8.1 mph 16.1 mph N/A   Clear
3:13 PM 62.6 °F - 28.4 °F 27% 29.93 in 10.0 mi WSW 10.4 mph 16.1 mph N/A   Scattered Clouds
3:33 PM 62.6 °F - 28.4 °F 27% 29.92 in 10.0 mi West 9.2 mph - N/A   Scattered Clouds
3:53 PM 62.6 °F - 28.4 °F 27% 29.91 in 10.0 mi West 6.9 mph 17.3 mph N/A   Clear
4:13 PM 62.6 °F - 28.4 °F 27% 29.91 in 10.0 mi WNW 9.2 mph - N/A   Scattered Clouds
4:33 PM 64.4 °F - 28.4 °F 26% 29.91 in 10.0 mi NW 12.7 mph - N/A   Scattered Clouds
4:53 PM 62.6 °F - 26.6 °F 26% 29.91 in 10.0 mi West 10.4 mph - N/A   Scattered Clouds
5:13 PM 62.6 °F - 26.6 °F 26% 29.91 in 10.0 mi West 9.2 mph - N/A   Clear
5:33 PM 62.6 °F - 26.6 °F 26% 29.91 in 10.0 mi WNW 8.1 mph - N/A   Clear
5:53 PM 62.6 °F - 26.6 °F 26% 29.91 in 10.0 mi West 5.8 mph - N/A   Clear
6:13 PM 60.8 °F - 26.6 °F 27% 29.91 in 10.0 mi WNW 3.5 mph - N/A   Clear
6:33 PM 60.8 °F - 28.4 °F 29% 29.90 in 10.0 mi WNW 5.8 mph - N/A   Clear
6:53 PM 59.0 °F - 28.4 °F 31% 29.90 in 10.0 mi Calm Calm - N/A   Clear
7:13 PM 59.0 °F - 28.4 °F 31% 29.90 in 10.0 mi Calm Calm - N/A   Clear
7:33 PM 57.2 °F - 28.4 °F 33% 29.91 in 10.0 mi Calm Calm - N/A   Clear
7:53 PM 53.6 °F - 33.8 °F 47% 29.91 in 10.0 mi Calm Calm - N/A   Clear
8:13 PM 51.8 °F - 33.8 °F 50% 29.92 in 10.0 mi Calm Calm - N/A   Clear
8:33 PM 51.8 °F - 39.2 °F 62% 29.92 in 10.0 mi Calm Calm - N/A   Clear
8:53 PM 50.0 °F - 33.8 °F 54% 29.92 in 10.0 mi Calm Calm - N/A   Clear
9:13 PM 51.8 °F - 30.2 °F 44% 29.93 in 10.0 mi East 3.5 mph - N/A   Clear
9:34 PM 53.6 °F - 30.2 °F 41% 29.94 in 10.0 mi Calm Calm - N/A   Clear
9:53 PM 51.8 °F - 32.0 °F 47% 29.92 in 10.0 mi East 3.5 mph - N/A   Clear
10:14 PM 51.8 °F - 30.2 °F 44% 29.92 in 10.0 mi East 4.6 mph - N/A   Clear
10:33 PM 51.8 °F - 30.2 °F 44% 29.93 in 10.0 mi ESE 3.5 mph - N/A   Clear
10:53 PM 51.8 °F - 30.2 °F 44% 29.92 in 10.0 mi East 3.5 mph - N/A   Scattered Clouds
11:14 PM 51.8 °F - 32.0 °F 47% 29.92 in 10.0 mi East 3.5 mph - N/A   Scattered Clouds
11:33 PM 51.8 °F - 30.2 °F 44% 29.91 in 10.0 mi Calm Calm - N/A   Mostly Cloudy
11:53 PM 50.0 °F - 30.2 °F 47% 29.91 in 10.0 mi ENE 4.6 mph - N/A   Scattered Clouds